Time,TemperatureF,DewpointF,PressureIn,WindDirection,WindDirectionDegrees,WindSpeedMPH,WindSpeedGustMPH,Humidity,HourlyPrecipIn,Conditions,Clouds,dailyrainin,SoftwareType,DateUTC
2013-06-13 00:02:00,66.0,38.0,30.30,SSW,194,1.0,5.0,35,0.00,,,0.00,,2013-06-13 06:02:00,
2013-06-13 00:11:00,66.0,38.0,30.30,SSW,194,1.0,5.0,35,0.00,,,0.00,,2013-06-13 06:11:00,
2013-06-13 00:22:00,66.0,38.0,30.30,SSE,167,6.0,11.0,36,0.00,,,0.00,,2013-06-13 06:22:00,
2013-06-13 00:33:00,65.0,39.0,30.30,SSW,198,2.0,9.0,38,0.00,,,0.00,,2013-06-13 06:33:00,
2013-06-13 00:44:00,65.0,39.0,30.30,SSW,198,2.0,9.0,38,0.00,,,0.00,,2013-06-13 06:44:00,
2013-06-13 00:52:00,65.0,39.0,30.30,South,191,7.0,11.0,38,0.00,,,0.00,,2013-06-13 06:52:00,
2013-06-13 01:01:00,65.0,39.0,30.29,SSW,195,7.0,12.0,39,0.00,,,0.00,,2013-06-13 07:01:00,
2013-06-13 01:11:00,65.0,39.0,30.29,SSW,195,7.0,12.0,39,0.00,,,0.00,,2013-06-13 07:11:00,
2013-06-13 01:22:00,64.0,39.0,30.28,WSW,242,11.0,14.0,39,0.00,,,0.00,,2013-06-13 07:22:00,
2013-06-13 01:33:00,64.0,38.0,30.27,SW,232,8.0,12.0,38,0.00,,,0.00,,2013-06-13 07:33:00,
2013-06-13 01:42:00,64.0,38.0,30.27,SW,232,8.0,12.0,38,0.00,,,0.00,,2013-06-13 07:42:00,
2013-06-13 01:52:00,64.0,38.0,30.27,SW,232,8.0,12.0,38,0.00,,,0.00,,2013-06-13 07:52:00,
2013-06-13 02:01:00,64.0,38.0,30.27,SW,232,8.0,12.0,38,0.00,,,0.00,,2013-06-13 08:01:00,
2013-06-13 02:11:00,64.0,38.0,30.27,SW,232,8.0,12.0,38,0.00,,,0.00,,2013-06-13 08:11:00,
2013-06-13 08:11:00,67.0,30.0,30.27,SW,218,10.0,16.0,25,0.00,,,0.00,,2013-06-13 14:11:00,
2013-06-13 08:22:00,67.0,30.0,30.27,SSW,210,7.0,16.0,25,0.00,,,0.00,,2013-06-13 14:22:00,
2013-06-13 08:33:00,68.0,32.0,30.28,SSW,196,4.0,10.0,26,0.00,,,0.00,,2013-06-13 14:33:00,
2013-06-13 08:43:00,68.0,32.0,30.28,SSW,196,4.0,10.0,26,0.00,,,0.00,,2013-06-13 14:43:00,
2013-06-13 09:01:00,69.0,32.0,30.25,South,184,10.0,13.0,25,0.00,,,0.00,,2013-06-13 15:01:00,
2013-06-13 09:12:00,69.0,32.0,30.25,South,184,10.0,13.0,25,0.00,,,0.00,,2013-06-13 15:12:00,
2013-06-13 09:22:00,70.0,34.0,30.27,South,182,11.0,14.0,26,0.00,,,0.00,,2013-06-13 15:22:00,
2013-06-13 09:33:00,70.0,34.0,30.25,South,170,5.0,12.0,27,0.00,,,0.00,,2013-06-13 15:33:00,
2013-06-13 09:43:00,70.0,34.0,30.25,South,170,5.0,12.0,27,0.00,,,0.00,,2013-06-13 15:43:00,
2013-06-13 09:53:00,70.0,34.0,30.27,South,188,10.0,14.0,27,0.00,,,0.00,,2013-06-13 15:53:00,
2013-06-13 10:01:00,70.0,35.0,30.27,South,190,6.0,15.0,28,0.00,,,0.00,,2013-06-13 16:01:00,
2013-06-13 10:12:00,70.0,35.0,30.27,South,190,6.0,15.0,28,0.00,,,0.00,,2013-06-13 16:12:00,
2013-06-13 10:22:00,71.0,35.0,30.25,SSE,157,9.0,16.0,27,0.00,,,0.00,,2013-06-13 16:22:00,
2013-06-13 10:33:00,71.0,35.0,30.25,South,185,6.0,13.0,27,0.00,,,0.00,,2013-06-13 16:33:00,
2013-06-13 10:43:00,71.0,35.0,30.25,South,185,6.0,13.0,27,0.00,,,0.00,,2013-06-13 16:43:00,
2013-06-13 10:53:00,73.0,37.0,30.24,South,172,7.0,14.0,27,0.00,,,0.00,,2013-06-13 16:53:00,
2013-06-13 11:02:00,74.0,36.0,30.26,South,190,7.0,18.0,25,0.00,,,0.00,,2013-06-13 17:02:00,
2013-06-13 11:11:00,74.0,36.0,30.26,South,190,7.0,18.0,25,0.00,,,0.00,,2013-06-13 17:11:00,
2013-06-13 11:24:00,75.0,37.0,30.26,South,174,4.0,13.0,25,0.00,,,0.00,,2013-06-13 17:24:00,
2013-06-13 11:32:00,75.0,36.0,30.26,South,190,10.0,18.0,24,0.00,,,0.00,,2013-06-13 17:32:00,
2013-06-13 11:43:00,75.0,36.0,30.26,South,190,10.0,18.0,24,0.00,,,0.00,,2013-06-13 17:43:00,
2013-06-13 11:53:00,75.0,36.0,30.25,South,186,7.0,17.0,24,0.00,,,0.00,,2013-06-13 17:53:00,
2013-06-13 12:02:00,75.0,36.0,30.25,South,183,6.0,20.0,24,0.00,,,0.00,,2013-06-13 18:02:00,
2013-06-13 12:11:00,75.0,36.0,30.25,South,183,6.0,20.0,24,0.00,,,0.00,,2013-06-13 18:11:00,
2013-06-13 12:22:00,76.0,36.0,30.26,SSW,209,10.0,16.0,23,0.00,,,0.00,,2013-06-13 18:22:00,
2013-06-13 12:33:00,76.0,37.0,30.24,SSW,211,10.0,15.0,24,0.00,,,0.00,,2013-06-13 18:33:00,
2013-06-13 12:43:00,76.0,37.0,30.24,SSW,211,10.0,15.0,24,0.00,,,0.00,,2013-06-13 18:43:00,
2013-06-13 12:52:00,76.0,37.0,30.23,South,180,8.0,16.0,24,0.00,,,0.00,,2013-06-13 18:52:00,
2013-06-13 13:01:00,77.0,36.0,30.23,South,182,8.0,14.0,23,0.00,,,0.00,,2013-06-13 19:01:00,
2013-06-13 13:11:00,77.0,36.0,30.23,South,182,8.0,14.0,23,0.00,,,0.00,,2013-06-13 19:11:00,
2013-06-13 13:22:00,77.0,34.0,30.22,WSW,238,10.0,18.0,21,0.00,,,0.00,,2013-06-13 19:22:00,
2013-06-13 13:32:00,78.0,36.0,30.21,SW,227,8.0,17.0,22,0.00,,,0.00,,2013-06-13 19:32:00,
2013-06-13 13:43:00,78.0,36.0,30.21,SW,227,8.0,17.0,22,0.00,,,0.00,,2013-06-13 19:43:00,
2013-06-13 13:53:00,78.0,32.0,30.22,WSW,241,13.0,22.0,19,0.00,,,0.00,,2013-06-13 19:53:00,
2013-06-13 14:01:00,79.0,34.0,30.21,SSW,196,10.0,22.0,20,0.00,,,0.00,,2013-06-13 20:01:00,
2013-06-13 14:11:00,79.0,34.0,30.21,SSW,196,10.0,22.0,20,0.00,,,0.00,,2013-06-13 20:11:00,
2013-06-13 14:22:00,78.0,34.0,30.20,SW,217,16.0,28.0,20,0.00,,,0.00,,2013-06-13 20:22:00,
2013-06-13 14:32:00,78.0,34.0,30.19,SSW,208,18.0,29.0,20,0.00,,,0.00,,2013-06-13 20:32:00,
2013-06-13 14:43:00,78.0,34.0,30.19,SSW,208,18.0,29.0,20,0.00,,,0.00,,2013-06-13 20:43:00,
2013-06-13 14:53:00,78.0,34.0,30.20,SSW,196,17.0,28.0,20,0.00,,,0.00,,2013-06-13 20:53:00,
2013-06-13 15:02:00,78.0,32.0,30.19,South,188,18.0,26.0,19,0.00,,,0.00,,2013-06-13 21:02:00,
2013-06-13 15:11:00,78.0,32.0,30.19,South,188,18.0,26.0,19,0.00,,,0.00,,2013-06-13 21:11:00,
2013-06-13 15:22:00,79.0,33.0,30.17,WSW,243,20.0,33.0,19,0.00,,,0.00,,2013-06-13 21:22:00,
2013-06-13 15:43:00,79.0,34.0,30.18,South,188,15.0,29.0,20,0.00,,,0.00,,2013-06-13 21:43:00,
2013-06-13 15:52:00,78.0,32.0,30.16,SW,225,20.0,35.0,19,0.00,,,0.00,,2013-06-13 21:52:00,
2013-06-13 16:01:00,78.0,32.0,30.15,SW,218,21.0,33.0,19,0.00,,,0.00,,2013-06-13 22:01:00,
2013-06-13 16:11:00,78.0,32.0,30.15,SW,218,21.0,33.0,19,0.00,,,0.00,,2013-06-13 22:11:00,
2013-06-13 16:22:00,79.0,30.0,30.16,SW,219,20.0,38.0,17,0.00,,,0.00,,2013-06-13 22:22:00,
2013-06-13 16:32:00,79.0,30.0,30.15,SW,232,0.0,14.0,17,0.00,,,0.00,,2013-06-13 22:32:00,
2013-06-13 16:42:00,79.0,30.0,30.15,SW,232,0.0,14.0,17,0.00,,,0.00,,2013-06-13 22:42:00,
2013-06-13 16:52:00,78.0,31.0,30.14,SSW,212,22.0,36.0,18,0.00,,,0.00,,2013-06-13 22:52:00,
2013-06-13 17:01:00,78.0,31.0,30.15,SW,230,14.0,32.0,18,0.00,,,0.00,,2013-06-13 23:01:00,
2013-06-13 17:11:00,78.0,31.0,30.15,SW,230,14.0,32.0,18,0.00,,,0.00,,2013-06-13 23:11:00,
2013-06-13 17:22:00,78.0,31.0,30.15,SW,215,20.0,28.0,18,0.00,,,0.00,,2013-06-13 23:22:00,
2013-06-13 17:32:00,79.0,33.0,30.14,SW,215,14.0,29.0,19,0.00,,,0.00,,2013-06-13 23:32:00,
2013-06-13 17:43:00,79.0,33.0,30.14,SW,215,14.0,29.0,19,0.00,,,0.00,,2013-06-13 23:43:00,
2013-06-13 17:52:00,79.0,30.0,30.13,SW,227,16.0,32.0,17,0.00,,,0.00,,2013-06-13 23:52:00,
2013-06-13 18:01:00,80.0,33.0,30.13,SW,225,18.0,30.0,18,0.00,,,0.00,,2013-06-14 00:01:00,
2013-06-13 18:11:00,80.0,33.0,30.13,SW,225,18.0,30.0,18,0.00,,,0.00,,2013-06-14 00:11:00,
2013-06-13 18:22:00,80.0,31.0,30.12,SSW,203,17.0,27.0,17,0.00,,,0.00,,2013-06-14 00:22:00,
2013-06-13 18:33:00,79.0,32.0,30.10,SSW,211,15.0,33.0,18,0.00,,,0.00,,2013-06-14 00:33:00,
2013-06-13 18:43:00,79.0,32.0,30.10,SSW,211,15.0,33.0,18,0.00,,,0.00,,2013-06-14 00:43:00,
2013-06-13 18:53:00,78.0,31.0,30.12,SW,221,6.0,25.0,18,0.00,,,0.00,,2013-06-14 00:53:00,
2013-06-13 19:01:00,78.0,31.0,30.11,WSW,242,12.0,20.0,18,0.00,,,0.00,,2013-06-14 01:01:00,
2013-06-13 19:11:00,78.0,31.0,30.11,WSW,242,12.0,20.0,18,0.00,,,0.00,,2013-06-14 01:11:00,
2013-06-13 19:22:00,77.0,32.0,30.11,WSW,248,12.0,20.0,19,0.00,,,0.00,,2013-06-14 01:22:00,
2013-06-13 19:32:00,76.0,31.0,30.11,SSW,192,14.0,22.0,19,0.00,,,0.00,,2013-06-14 01:32:00,
2013-06-13 19:43:00,76.0,31.0,30.11,SSW,192,14.0,22.0,19,0.00,,,0.00,,2013-06-14 01:43:00,
2013-06-13 19:52:00,76.0,31.0,30.11,SSW,205,13.0,20.0,19,0.00,,,0.00,,2013-06-14 01:52:00,
2013-06-13 20:02:00,75.0,30.0,30.11,SSW,213,11.0,18.0,19,0.00,,,0.00,,2013-06-14 02:02:00,
2013-06-13 20:11:00,75.0,30.0,30.11,SSW,213,11.0,18.0,19,0.00,,,0.00,,2013-06-14 02:11:00,
2013-06-13 20:22:00,75.0,31.0,30.11,SW,230,9.0,20.0,20,0.00,,,0.00,,2013-06-14 02:22:00,
2013-06-13 20:32:00,74.0,30.0,30.10,SSW,196,11.0,17.0,20,0.00,,,0.00,,2013-06-14 02:32:00,
2013-06-13 20:43:00,74.0,30.0,30.10,SSW,196,11.0,17.0,20,0.00,,,0.00,,2013-06-14 02:43:00,
2013-06-13 20:53:00,73.0,30.0,30.12,SSW,200,9.0,18.0,20,0.00,,,0.00,,2013-06-14 02:53:00,
2013-06-13 21:02:00,71.0,30.0,30.11,South,188,4.0,12.0,22,0.00,,,0.00,,2013-06-14 03:02:00,
2013-06-13 21:11:00,71.0,30.0,30.11,South,188,4.0,12.0,22,0.00,,,0.00,,2013-06-14 03:11:00,
2013-06-13 21:22:00,70.0,30.0,30.11,South,191,8.0,13.0,23,0.00,,,0.00,,2013-06-14 03:22:00,
2013-06-13 21:34:00,69.0,31.0,30.11,SSW,211,8.0,13.0,24,0.00,,,0.00,,2013-06-14 03:34:00,
2013-06-13 21:43:00,69.0,31.0,30.11,SSW,211,8.0,13.0,24,0.00,,,0.00,,2013-06-14 03:43:00,
2013-06-13 21:53:00,69.0,31.0,30.12,South,191,8.0,17.0,24,0.00,,,0.00,,2013-06-14 03:53:00,
2013-06-13 22:01:00,68.0,31.0,30.11,SSW,213,7.0,18.0,25,0.00,,,0.00,,2013-06-14 04:01:00,
2013-06-13 22:12:00,68.0,31.0,30.11,SSW,213,7.0,18.0,25,0.00,,,0.00,,2013-06-14 04:12:00,
2013-06-13 22:22:00,68.0,31.0,30.12,SW,222,8.0,19.0,25,0.00,,,0.00,,2013-06-14 04:22:00,
2013-06-13 22:33:00,68.0,32.0,30.14,SSW,196,6.0,20.0,26,0.00,,,0.00,,2013-06-14 04:33:00,
2013-06-13 22:43:00,68.0,32.0,30.14,SSW,196,6.0,20.0,26,0.00,,,0.00,,2013-06-14 04:43:00,
2013-06-13 22:53:00,66.0,31.0,30.13,SSE,166,12.0,16.0,27,0.00,,,0.00,,2013-06-14 04:53:00,
2013-06-13 23:02:00,65.0,30.0,30.13,South,186,13.0,16.0,27,0.00,,,0.00,,2013-06-14 05:02:00,
2013-06-13 23:11:00,65.0,30.0,30.13,South,186,13.0,16.0,27,0.00,,,0.00,,2013-06-14 05:11:00,
2013-06-13 23:22:00,65.0,30.0,30.13,SSW,195,9.0,14.0,27,0.00,,,0.00,,2013-06-14 05:22:00,
2013-06-13 23:33:00,67.0,30.0,30.13,WSW,241,15.0,19.0,25,0.00,,,0.00,,2013-06-14 05:33:00,
2013-06-13 23:43:00,67.0,30.0,30.13,WSW,241,15.0,19.0,25,0.00,,,0.00,,2013-06-14 05:43:00,
2013-06-13 23:52:00,69.0,30.0,30.11,SW,232,14.0,20.0,23,0.00,,,0.00,,2013-06-14 05:52:00,